GOSAT (IBUKI)

Last updated on Wed Sep 17 2025 00:02:30 GMT+0000 (Coordinated Universal Time)

1 33492U 09002A 25259.59247666 .00000733 00000+0 13775-3 0 9998 2 33492 98.0703 9.4411 0001292 108.6786 251.4559 14.67540351891330
UTC large
Height (km)
Speed (km/s)
/
Latitude / Longitude
Inclination (degrees)
Orbital Period (minutes)
Azimuth
Elevation
Range (km)
Doppler Factor

Next 0 passes for location: London (51.5072 / 0.1276)

Sorry there are no passes over London.